Regional Weather Roundup
Issued by NWS Charleston, SC

Current Version | Previous Version | Text Only | Print | Product List | Glossary Off
Versions: 1 2 3 4 5 6 7 8 9 10 11 12 13 14 15 16 17 18 19 20 21 22 23 24 25 26 27 28 29 30 31 32 33 34 35 36 37 38 39 40 41 42 43 44 45 46 47 48 49 50
000 ASUS42 KCHS 021426 RWRCHS REGIONAL WEATHER ROUNDUP NATIONAL WEATHER SERVICE CHARLESTON SC 900 AM EST MON MAR 02 2015 NOTE: "FAIR" INDICATES FEW OR NO CLOUDS BELOW 12,000 FEET WITH NO SIGNIFICANT WEATHER AND/OR OBSTRUCTIONS TO VISIBILITY. NOT ALL STATIONS ARE QUALITY CONTROLLED BY THE NATIONAL WEATHER SERVICE. USE DATA WITH CAUTION...ESPECIALLY DEWPOINT OBSERVATIONS. SCZ027-030-031-034>040-042>050-021500- ...SOUTHEAST SOUTH CAROLINA... CITY SKY/WX TMP DP RH WIND PRES REMARKS N CHARLESTON FOG 49 48 97 W6 30.32R VSB 1/8 WATERFRONT PRK N/A 48 N/A N/A W5 N/A MOUNT PLEASANT FOG 50 50 100 W5 30.31R VSB 1/2 PINOPOLIS N/A 48 48 100 VRB3 30.23R MONCKS CORNER CLOUDY 50 48 93 W5 30.30R FOG SUMMERVILLE CLOUDY 48 48 100 SW3 30.32R FOG BEAUFORT MCAS FOG 50 50 100 W6 30.32S VSB 3/4 BEAUFORT ARPT CLOUDY 52 52 100 CALM 30.31S FOG HILTON HEAD IS CLOUDY 52 52 100 W7 30.33R FOG WALTERBORO FOG 50 50 100 W5 30.32S VSB 1 ALLENDALE FOG 48 48 100 VRB3 30.31S VSB 3/4 ...SOUTHERN MIDLANDS AND PEE DEE... CITY SKY/WX TMP DP RH WIND PRES REMARKS GEORGETOWN NOT AVBL KINGSTREE NOT AVBL ORANGEBURG FOG 49 47 93 W8 30.30R VSB 1 BARNWELL CLOUDY 50 50 100 W5 30.31S FOG AIKEN CLOUDY 48 48 100 SW9 30.32R FOG MANNING FOG N/A N/A N/A SW6 30.29R VSB 1 COLUMBIA CLOUDY 50 48 93 W5 30.27R SUMTER FOG 48 48 100 SW9 30.25S VSB 1/2 FLORENCE FOG 48 47 96 SW7 30.25S VSB 1 MYRTLE BEACH FOG 48 46 93 W8 30.29S VSB 1/4 N MYRTLE BEACH CLOUDY 49 48 97 W6 30.27R FOG $$ GAZ063-065-086>088-099>101-113>116-118-119-134>141-150-021500- ...SOUTHEAST GEORGIA... CITY SKY/WX TMP DP RH WIND PRES REMARKS SAVANNAH ARPT FOG 50 48 93 W5 30.33R VSB 1/4 HUNTER AAF FOG 52 52 100 W5 30.30R VSB 1/4 FORT STEWART FOG 54 52 94 CALM 30.31R VSB 3/4 STATESBORO FOG 49 49 100 W6 30.33R VSB 3/4 SYLVANIA FOG 49 49 100 NW8 30.34R VSB 1/2 CLAXTON FOG 50 50 100 W3 30.34R VSB 1/4 ...CSRA...CENTRAL AND FAR SOUTHEAST GEORGIA... CITY SKY/WX TMP DP RH WIND PRES REMARKS THOMSON CLOUDY 52 52 100 W3 30.35R AUGUSTA-BUSH CLOUDY 50 48 93 W3 30.32R AUGUSTA-DANIEL CLOUDY 50 48 93 CALM 30.31R SWAINSBORO FOG 50 50 100 W3 30.34R VSB 1/2 VIDALIA FOG 50 50 100 NW3 30.34R VSB 1/4 EASTMAN FOG 50 50 100 CALM 30.37S VSB 1/4 HAZLEHURST FOG 52 52 100 N3 30.33R VSB<1/4 ALMA FOG 51 51 100 CALM 30.32R VSB<1/4 WAYCROSS FOG 56 56 100 CALM 30.33R VSB<1/4 JESUP FOG 55 54 94 CALM 30.33R VSB<1/4 BAXLEY FOG 54 54 100 CALM 30.33R VSB<1/4 BRUNSWICK CLOUDY 54 52 94 CALM 30.34R SAINT SIMONS FOG 53 52 96 VRB5 30.33R VSB 1/2 $$ SCZ027-028-034-036>038-045-046-048>050-GAZ119-141-021500- ...LAKE AND SUPPLEMENTAL COASTAL OBSERVATIONS... STATION/POSITION TIME TEMP WIND PRES WAVE SWELL AIR SEA DIR/SP/G HT/PER HT/PER/DIR (UTC) (F) (DEG/KT/KT) (MB) (FT/S) (FT/S/D) UPR LAKE MARION NOT AVBL WINYAH BAY 1345 47 270/ 6 1024.0R LAKE MURRAY 1300 47 230/ 5/ 7 1023.7S ACE BASIN NERRS NOT AVBL FORT PULASKI 1400 49 48 270/ 3/ 4 1027.0R SAPELO ISLAND 1400 51 CALM 1027.0R $$ ANZ835-935-AMZ111-154-330-350-352-354-370-450-454-472-021500- ...C-MAN AND BUOY OBSERVATIONS... STATION/POSITION TIME TEMP WIND PRES WAVE SWELL AIR SEA DIR/SP/G HT/PER HT/PER/DIR (UTC) (F) (DEG/KT/KT) (MB) (FT/S) (FT/S/D) BUOY 41004 1350 60 68 230/ 10/ 12 1025.1S 5/ 8 5/ 8 BUOY 41008 1350 51 54 10/ 2/ 2 1026.5F 3/10 3/ 90/10 FOLLY BEACH CMAN 1400 48 260/ 6/ 9 1026.7R CAPERS NEARSHORE NOT AVBL FRIPP NEARSHORE 1300 48 310/ 8/ 8 1025.2S STATION/POSITION TIME TEMP WIND PRES WAVE SWELL AIR SEA DIR/SP/G HT/PER HT/PER/DIR (UTC) (F) (DEG/KT/KT) (MB) (FT/S) (FT/S/D) 5E ST. MARYS GA 1321 51 N/A 3/10 2/100/11 FRYING PAN BUOY 1350 57 62 260/ 14/ 16 1024.9R 4/ 8 3/120/ 8 BUOY 41025 NOT AVBL CAPE LOOKOUT NC 1400 47 250/ 12/ 15 1023.6R BUOY 41002 1350 71 73 230/ 14/ 17 1025.4R 6/ 9 5/100/ 9 BUOY 41010 1320 74 75 190/ 4/ 6 1026.3R ST AUGUSTINE FL 1400 53 170/ 3/ 3 1027.0F $$

USA.gov is the U.S. government's official web portal to all federal, state and local government web resources and services.